SPACEWAY 3 1 32018U 07036A 21063.10929913 -.00000161 00000-0 00000+0 0 9994 2 32018 0.0054 329.9133 0000211 8.4582 128.0930 1.00271256 49769 BSAT-3A 1 32019U 07036B 21062.86993910 -.00000360 00000-0 00000-0 0 9997 2 32019 0.0880 255.6372 0001419 20.4985 308.7158 1.00270739 31157 ARIANE 5 R/B 1 32021U 07036D 21062.32407789 .00000095 00000-0 11818-3 0 9991 2 32021 1.7486 212.3712 7176431 44.5865 354.3248 2.38864727115761